Year,Month,Day,Hour,Minute,Value (Times are PST for temperature in C)
2008,06,27,00,00,10.10
2008,06,27,00,01,10.10
2008,06,27,00,02,10.10
2008,06,27,00,03,10.00
2008,06,27,00,04,9.90
2008,06,27,00,05,9.90
2008,06,27,00,06,9.90
2008,06,27,00,07,9.90
2008,06,27,00,08,9.90
2008,06,27,00,09,9.90
2008,06,27,00,10,9.90
2008,06,27,00,11,9.80
2008,06,27,00,12,9.80
2008,06,27,00,13,9.80
2008,06,27,00,14,9.80
2008,06,27,00,15,9.80
2008,06,27,00,16,9.80
2008,06,27,00,17,9.70
2008,06,27,00,18,9.70
2008,06,27,00,19,9.70
2008,06,27,00,20,9.80
2008,06,27,00,21,9.80
2008,06,27,00,22,9.80
2008,06,27,00,23,9.80
2008,06,27,00,24,9.80
2008,06,27,00,25,9.80
2008,06,27,00,26,9.80
2008,06,27,00,27,9.80
2008,06,27,00,28,9.80
2008,06,27,00,29,9.80
2008,06,27,00,30,9.80
2008,06,27,00,31,9.80
2008,06,27,00,32,9.80
2008,06,27,00,33,9.80
2008,06,27,00,34,9.80
2008,06,27,00,35,9.70
2008,06,27,00,36,9.70
2008,06,27,00,37,9.70
2008,06,27,00,38,9.70
2008,06,27,00,39,9.60
2008,06,27,00,40,9.60
2008,06,27,00,41,9.50
2008,06,27,00,42,9.50
2008,06,27,00,43,9.40
2008,06,27,00,44,9.40
2008,06,27,00,45,9.30
2008,06,27,00,46,9.30
2008,06,27,00,47,9.20
2008,06,27,00,48,9.20
2008,06,27,00,49,9.20
2008,06,27,00,50,9.20
2008,06,27,00,51,9.20
2008,06,27,00,52,9.20
2008,06,27,00,53,9.20
2008,06,27,00,54,9.20
2008,06,27,00,55,9.20
2008,06,27,00,56,9.20
2008,06,27,00,57,9.20
2008,06,27,00,58,9.20
2008,06,27,00,59,9.20
2008,06,27,01,00,9.20
2008,06,27,01,01,9.20
2008,06,27,01,02,9.20
2008,06,27,01,03,9.30
2008,06,27,01,04,9.30
2008,06,27,01,05,9.30
2008,06,27,01,06,9.40
2008,06,27,01,07,9.40
2008,06,27,01,08,9.40
2008,06,27,01,09,9.40
2008,06,27,01,10,9.40
2008,06,27,01,11,9.50
2008,06,27,01,12,9.50
2008,06,27,01,13,9.50
2008,06,27,01,14,9.50
2008,06,27,01,15,9.50
2008,06,27,01,16,9.50
2008,06,27,01,17,9.50
2008,06,27,01,18,9.50
2008,06,27,01,19,9.50
2008,06,27,01,20,9.50
2008,06,27,01,21,9.50
2008,06,27,01,22,9.50
2008,06,27,01,23,9.50
2008,06,27,01,24,9.40
2008,06,27,01,25,9.40
2008,06,27,01,26,9.30
2008,06,27,01,27,9.30
2008,06,27,01,28,9.20
2008,06,27,01,29,9.20
2008,06,27,01,30,9.20
2008,06,27,01,31,9.20
2008,06,27,01,32,9.10
2008,06,27,01,33,9.10
2008,06,27,01,34,9.00
2008,06,27,01,35,9.00
2008,06,27,01,36,9.00
2008,06,27,01,37,9.00
2008,06,27,01,38,8.90
2008,06,27,01,39,8.90
2008,06,27,01,40,8.90
2008,06,27,01,41,8.90
2008,06,27,01,42,8.90
2008,06,27,01,43,8.90
2008,06,27,01,44,8.90
2008,06,27,01,45,8.90
2008,06,27,01,46,8.90
2008,06,27,01,47,8.90
2008,06,27,01,48,8.90
2008,06,27,01,49,8.90
2008,06,27,01,50,8.90
2008,06,27,01,51,8.90
2008,06,27,01,52,9.00
2008,06,27,01,53,9.00
2008,06,27,01,54,9.00
2008,06,27,01,55,9.00
2008,06,27,01,56,9.10
2008,06,27,01,57,9.10
2008,06,27,01,58,9.10
2008,06,27,01,59,9.20
2008,06,27,02,00,9.20
2008,06,27,02,01,9.30
2008,06,27,02,02,9.30
2008,06,27,02,03,9.30
2008,06,27,02,04,9.40
2008,06,27,02,05,9.40
2008,06,27,02,06,9.40
2008,06,27,02,07,9.40
2008,06,27,02,08,9.40
2008,06,27,02,09,9.30
2008,06,27,02,10,9.20
2008,06,27,02,11,9.10
2008,06,27,02,12,9.00
2008,06,27,02,13,9.00
2008,06,27,02,14,8.90
2008,06,27,02,15,8.90
2008,06,27,02,16,8.90
2008,06,27,02,17,8.90
2008,06,27,02,18,8.80
2008,06,27,02,19,8.80
2008,06,27,02,20,8.70
2008,06,27,02,21,8.70
2008,06,27,02,22,8.70
2008,06,27,02,23,8.70
2008,06,27,02,24,8.70
2008,06,27,02,25,8.70
2008,06,27,02,26,8.70
2008,06,27,02,27,8.60
2008,06,27,02,28,8.60
2008,06,27,02,29,8.60
2008,06,27,02,30,8.60
2008,06,27,02,31,8.60
2008,06,27,02,32,8.70
2008,06,27,02,33,8.70
2008,06,27,02,34,8.70
2008,06,27,02,35,8.70
2008,06,27,02,36,8.70
2008,06,27,02,37,8.70
2008,06,27,02,38,8.60
2008,06,27,02,39,8.60
2008,06,27,02,40,8.60
2008,06,27,02,41,8.60
2008,06,27,02,42,8.60
2008,06,27,02,43,8.60
2008,06,27,02,44,8.60
2008,06,27,02,45,8.60
2008,06,27,02,46,8.60
2008,06,27,02,47,8.60
2008,06,27,02,48,8.60
2008,06,27,02,49,8.60
2008,06,27,02,50,8.60
2008,06,27,02,51,8.70
2008,06,27,02,52,8.70
2008,06,27,02,53,8.70
2008,06,27,02,54,8.70
2008,06,27,02,55,8.70
2008,06,27,02,56,8.70
2008,06,27,02,57,8.70
2008,06,27,02,58,8.80
2008,06,27,02,59,8.80
2008,06,27,03,00,8.80
2008,06,27,03,01,8.90
2008,06,27,03,02,8.90
2008,06,27,03,03,8.90
2008,06,27,03,04,8.90
2008,06,27,03,05,9.00
2008,06,27,03,06,9.00
2008,06,27,03,07,9.00
2008,06,27,03,08,9.00
2008,06,27,03,09,9.00
2008,06,27,03,10,9.00
2008,06,27,03,11,9.10
2008,06,27,03,12,9.10
2008,06,27,03,13,9.10
2008,06,27,03,14,9.10
2008,06,27,03,15,9.10
2008,06,27,03,16,9.10
2008,06,27,03,17,9.10
2008,06,27,03,18,9.10
2008,06,27,03,19,9.10
2008,06,27,03,20,9.10
2008,06,27,03,21,9.10
2008,06,27,03,22,9.20
2008,06,27,03,23,9.20
2008,06,27,03,24,9.20
2008,06,27,03,25,9.20
2008,06,27,03,26,9.20
2008,06,27,03,27,9.20
2008,06,27,03,28,9.20
2008,06,27,03,29,9.20
2008,06,27,03,30,9.20
2008,06,27,03,31,9.20
2008,06,27,03,32,9.20
2008,06,27,03,33,9.20
2008,06,27,03,34,9.20
2008,06,27,03,35,9.20
2008,06,27,03,36,9.20
2008,06,27,03,37,9.20
2008,06,27,03,38,9.20
2008,06,27,03,39,9.20
2008,06,27,03,40,9.20
2008,06,27,03,41,9.20
2008,06,27,03,42,9.20
2008,06,27,03,43,9.20
2008,06,27,03,44,9.20
2008,06,27,03,45,9.20
2008,06,27,03,46,9.30
2008,06,27,03,47,9.30
2008,06,27,03,48,9.30
2008,06,27,03,49,9.30
2008,06,27,03,50,9.30
2008,06,27,03,51,9.30
2008,06,27,03,52,9.30
2008,06,27,03,53,9.20
2008,06,27,03,54,9.20
2008,06,27,03,55,9.10
2008,06,27,03,56,9.00
2008,06,27,03,57,8.90
2008,06,27,03,58,8.90
2008,06,27,03,59,8.80
2008,06,27,04,00,8.70
2008,06,27,04,01,8.70
2008,06,27,04,02,8.70
2008,06,27,04,03,8.70
2008,06,27,04,04,8.70
2008,06,27,04,05,8.70
2008,06,27,04,06,8.70
2008,06,27,04,07,8.60
2008,06,27,04,08,8.60
2008,06,27,04,09,8.60
2008,06,27,04,10,8.50
2008,06,27,04,11,8.50
2008,06,27,04,12,8.50
2008,06,27,04,13,8.50
2008,06,27,04,14,8.50
2008,06,27,04,15,8.50
2008,06,27,04,16,8.40
2008,06,27,04,17,8.40
2008,06,27,04,18,8.40
2008,06,27,04,19,8.40
2008,06,27,04,20,8.40
2008,06,27,04,21,8.40
2008,06,27,04,22,8.40
2008,06,27,04,23,8.40
2008,06,27,04,24,8.40
2008,06,27,04,25,8.40
2008,06,27,04,26,8.40
2008,06,27,04,27,8.40
2008,06,27,04,28,8.50
2008,06,27,04,29,8.50
2008,06,27,04,30,8.50
2008,06,27,04,31,8.60
2008,06,27,04,32,8.60
2008,06,27,04,33,8.60
2008,06,27,04,34,8.70
2008,06,27,04,35,8.70
2008,06,27,04,36,8.60
2008,06,27,04,37,8.60
2008,06,27,04,38,8.60
2008,06,27,04,39,8.60
2008,06,27,04,40,8.60
2008,06,27,04,41,8.60
2008,06,27,04,42,8.60
2008,06,27,04,43,8.70
2008,06,27,04,44,8.70
2008,06,27,04,45,8.70
2008,06,27,04,46,8.70
2008,06,27,04,47,8.70
2008,06,27,04,48,8.60
2008,06,27,04,49,8.50
2008,06,27,04,50,8.40
2008,06,27,04,51,8.30
2008,06,27,04,52,8.20
2008,06,27,04,53,8.20
2008,06,27,04,54,8.20
2008,06,27,04,55,8.20
2008,06,27,04,56,8.10
2008,06,27,04,57,8.00
2008,06,27,04,58,7.90
2008,06,27,04,59,7.90
2008,06,27,05,00,7.80
2008,06,27,05,01,7.80
2008,06,27,05,02,7.70
2008,06,27,05,03,7.70
2008,06,27,05,04,7.70
2008,06,27,05,05,7.70
2008,06,27,05,06,7.70
2008,06,27,05,07,7.70
2008,06,27,05,08,7.70
2008,06,27,05,09,7.70
2008,06,27,05,10,7.70
2008,06,27,05,11,7.70
2008,06,27,05,12,7.70
2008,06,27,05,13,7.70
2008,06,27,05,14,7.70
2008,06,27,05,15,7.70
2008,06,27,05,16,7.70
2008,06,27,05,17,7.70
2008,06,27,05,18,7.80
2008,06,27,05,19,7.80
2008,06,27,05,20,7.80
2008,06,27,05,21,7.80
2008,06,27,05,22,7.80
2008,06,27,05,23,7.80
2008,06,27,05,24,7.80
2008,06,27,05,25,7.80
2008,06,27,05,26,7.80
2008,06,27,05,27,7.80
2008,06,27,05,28,7.80
2008,06,27,05,29,7.80
2008,06,27,05,30,7.80
2008,06,27,05,31,7.80
2008,06,27,05,32,7.80
2008,06,27,05,33,7.80
2008,06,27,05,34,7.80
2008,06,27,05,35,7.90
2008,06,27,05,36,7.90
2008,06,27,05,37,7.90
2008,06,27,05,38,8.00
2008,06,27,05,39,8.00
2008,06,27,05,40,8.00
2008,06,27,05,41,8.00
2008,06,27,05,42,8.00
2008,06,27,05,43,8.10
2008,06,27,05,44,8.10
2008,06,27,05,45,8.10
2008,06,27,05,46,8.20
2008,06,27,05,47,8.20
2008,06,27,05,48,8.20
2008,06,27,05,49,8.20
2008,06,27,05,50,8.30
2008,06,27,05,51,8.30
2008,06,27,05,52,8.40
2008,06,27,05,53,8.40
2008,06,27,05,54,8.50
2008,06,27,05,55,8.50
2008,06,27,05,56,8.60
2008,06,27,05,57,8.70
2008,06,27,05,58,8.70
2008,06,27,05,59,8.80
2008,06,27,06,00,8.90
2008,06,27,06,01,8.90
2008,06,27,06,02,9.00
2008,06,27,06,03,9.00
2008,06,27,06,04,9.10
2008,06,27,06,05,9.10
2008,06,27,06,06,9.10
2008,06,27,06,07,9.20
2008,06,27,06,08,9.20
2008,06,27,06,09,9.20
2008,06,27,06,10,9.20
2008,06,27,06,11,9.20
2008,06,27,06,12,9.20
2008,06,27,06,13,9.20
2008,06,27,06,14,9.20
2008,06,27,06,15,9.20
2008,06,27,06,16,9.20
2008,06,27,06,17,9.20
2008,06,27,06,18,9.20
2008,06,27,06,19,9.20
2008,06,27,06,20,9.20
2008,06,27,06,21,9.20
2008,06,27,06,22,9.20
2008,06,27,06,23,9.20
2008,06,27,06,24,9.20
2008,06,27,06,25,9.20
2008,06,27,06,26,9.20
2008,06,27,06,27,9.30
2008,06,27,06,28,9.40
2008,06,27,06,29,9.50
2008,06,27,06,30,9.50
2008,06,27,06,31,9.60
2008,06,27,06,32,9.70
2008,06,27,06,33,9.80
2008,06,27,06,34,9.80
2008,06,27,06,35,9.90
2008,06,27,06,36,9.90
2008,06,27,06,37,10.00
2008,06,27,06,38,10.10
2008,06,27,06,39,10.20
2008,06,27,06,40,10.30
2008,06,27,06,41,10.40
2008,06,27,06,42,10.50
2008,06,27,06,43,10.60
2008,06,27,06,44,10.70
2008,06,27,06,45,10.90
2008,06,27,06,46,10.90
2008,06,27,06,47,11.10
2008,06,27,06,48,11.10
2008,06,27,06,49,11.20
2008,06,27,06,50,11.30
2008,06,27,06,51,11.30
2008,06,27,06,52,11.40
2008,06,27,06,53,11.50
2008,06,27,06,54,11.60
2008,06,27,06,55,11.60
2008,06,27,06,56,11.70
2008,06,27,06,57,11.70
2008,06,27,06,58,11.80
2008,06,27,06,59,11.90
2008,06,27,07,00,11.90
2008,06,27,07,01,12.00
2008,06,27,07,02,12.10
2008,06,27,07,03,12.10
2008,06,27,07,04,12.20
2008,06,27,07,05,12.20
2008,06,27,07,06,12.30
2008,06,27,07,07,12.30
2008,06,27,07,08,12.40
2008,06,27,07,09,12.40
2008,06,27,07,10,12.50
2008,06,27,07,11,12.50
2008,06,27,07,12,12.60
2008,06,27,07,13,12.70
2008,06,27,07,14,12.70
2008,06,27,07,15,12.80
2008,06,27,07,16,12.80
2008,06,27,07,17,12.80
2008,06,27,07,18,12.90
2008,06,27,07,19,13.00
2008,06,27,07,20,13.00
2008,06,27,07,21,13.10
2008,06,27,07,22,13.10
2008,06,27,07,23,13.20
2008,06,27,07,24,13.20
2008,06,27,07,25,13.20
2008,06,27,07,26,13.30
2008,06,27,07,27,13.30
2008,06,27,07,28,13.30
2008,06,27,07,29,13.30
2008,06,27,07,30,13.40
2008,06,27,07,31,13.50
2008,06,27,07,32,13.50
2008,06,27,07,33,13.50
2008,06,27,07,34,13.60
2008,06,27,07,35,13.70
2008,06,27,07,36,13.70
2008,06,27,07,37,13.70
2008,06,27,07,38,13.80
2008,06,27,07,39,13.90
2008,06,27,07,40,13.90
2008,06,27,07,41,14.00
2008,06,27,07,42,14.00
2008,06,27,07,43,14.00
2008,06,27,07,44,14.00
2008,06,27,07,45,13.90
2008,06,27,07,46,13.90
2008,06,27,07,47,13.90
2008,06,27,07,48,13.80
2008,06,27,07,49,13.80
2008,06,27,07,50,13.80
2008,06,27,07,51,13.90
2008,06,27,07,52,13.90
2008,06,27,07,53,14.00
2008,06,27,07,54,14.00
2008,06,27,07,55,14.00
2008,06,27,07,56,14.00
2008,06,27,07,57,14.10
2008,06,27,07,58,14.10
2008,06,27,07,59,14.20
2008,06,27,08,00,14.20
2008,06,27,08,01,14.20
2008,06,27,08,02,14.20
2008,06,27,08,03,14.30
2008,06,27,08,04,14.20
2008,06,27,08,05,14.20
2008,06,27,08,06,14.20
2008,06,27,08,07,14.20
2008,06,27,08,08,14.20
2008,06,27,08,09,14.20
2008,06,27,08,10,14.20
2008,06,27,08,11,14.20
2008,06,27,08,12,14.20
2008,06,27,08,13,14.20
2008,06,27,08,14,14.30
2008,06,27,08,15,14.30
2008,06,27,08,16,14.30
2008,06,27,08,17,14.30
2008,06,27,08,18,14.20
2008,06,27,08,19,14.20
2008,06,27,08,20,14.20
2008,06,27,08,21,14.20
2008,06,27,08,22,14.20
2008,06,27,08,23,14.20
2008,06,27,08,24,14.20
2008,06,27,08,25,14.30
2008,06,27,08,26,14.40
2008,06,27,08,27,14.50
2008,06,27,08,28,14.50
2008,06,27,08,29,14.50
2008,06,27,08,30,14.60
2008,06,27,08,31,14.60
2008,06,27,08,32,14.60
2008,06,27,08,33,14.60
2008,06,27,08,34,14.60
2008,06,27,08,35,14.60
2008,06,27,08,36,14.60
2008,06,27,08,37,14.60
2008,06,27,08,38,14.50
2008,06,27,08,39,14.50
2008,06,27,08,40,14.60
2008,06,27,08,41,14.60
2008,06,27,08,42,14.60
2008,06,27,08,43,14.70
2008,06,27,08,44,14.70
2008,06,27,08,45,14.70
2008,06,27,08,46,14.80
2008,06,27,08,47,14.80
2008,06,27,08,48,14.90
2008,06,27,08,49,14.90
2008,06,27,08,50,14.90
2008,06,27,08,51,14.90
2008,06,27,08,52,14.90
2008,06,27,08,53,14.90
2008,06,27,08,54,14.90
2008,06,27,08,55,15.00
2008,06,27,08,56,15.00
2008,06,27,08,57,15.00
2008,06,27,08,58,15.10
2008,06,27,08,59,15.10
2008,06,27,09,00,15.20
2008,06,27,09,01,15.20
2008,06,27,09,02,15.30
2008,06,27,09,03,15.30
2008,06,27,09,04,15.30
2008,06,27,09,05,15.30
2008,06,27,09,06,15.30
2008,06,27,09,07,15.30
2008,06,27,09,08,15.20
2008,06,27,09,09,15.10
2008,06,27,09,10,15.00
2008,06,27,09,11,14.90
2008,06,27,09,12,14.90
2008,06,27,09,13,14.80
2008,06,27,09,14,14.80
2008,06,27,09,15,14.70
2008,06,27,09,16,14.70
2008,06,27,09,17,14.70
2008,06,27,09,18,14.70
2008,06,27,09,19,14.70
2008,06,27,09,20,14.70
2008,06,27,09,21,14.80
2008,06,27,09,22,14.80
2008,06,27,09,23,14.80
2008,06,27,09,24,14.80
2008,06,27,09,25,14.80
2008,06,27,09,26,14.90
2008,06,27,09,27,14.90
2008,06,27,09,28,15.00
2008,06,27,09,29,15.00
2008,06,27,09,30,15.00
2008,06,27,09,31,15.10
2008,06,27,09,32,15.10
2008,06,27,09,33,15.20
2008,06,27,09,34,15.30
2008,06,27,09,35,15.30
2008,06,27,09,36,15.30
2008,06,27,09,37,15.30
2008,06,27,09,38,15.20
2008,06,27,09,39,15.20
2008,06,27,09,40,15.20
2008,06,27,09,41,15.20
2008,06,27,09,42,15.20
2008,06,27,09,43,15.20
2008,06,27,09,44,15.10
2008,06,27,09,45,15.10
2008,06,27,09,46,15.10
2008,06,27,09,47,15.10
2008,06,27,09,48,15.10
2008,06,27,09,49,15.20
2008,06,27,09,50,15.20
2008,06,27,09,51,15.30
2008,06,27,09,52,15.40
2008,06,27,09,53,15.50
2008,06,27,09,54,15.50
2008,06,27,09,55,15.50
2008,06,27,09,56,15.40
2008,06,27,09,57,15.30
2008,06,27,09,58,15.30
2008,06,27,09,59,15.30
2008,06,27,10,00,15.30
2008,06,27,10,01,15.30
2008,06,27,10,02,15.30
2008,06,27,10,03,15.30
2008,06,27,10,04,15.30
2008,06,27,10,05,15.30
2008,06,27,10,06,15.30
2008,06,27,10,07,15.40
2008,06,27,10,08,15.40
2008,06,27,10,09,15.50
2008,06,27,10,10,15.60
2008,06,27,10,11,15.70
2008,06,27,10,12,15.80
2008,06,27,10,13,15.80
2008,06,27,10,14,15.80
2008,06,27,10,15,15.90
2008,06,27,10,16,16.00
2008,06,27,10,17,16.10
2008,06,27,10,18,16.10
2008,06,27,10,19,16.10
2008,06,27,10,20,16.10
2008,06,27,10,21,16.10
2008,06,27,10,22,16.10
2008,06,27,10,23,16.10
2008,06,27,10,24,16.10
2008,06,27,10,25,16.10
2008,06,27,10,26,16.10
2008,06,27,10,27,16.10
2008,06,27,10,28,16.10
2008,06,27,10,29,16.10
2008,06,27,10,30,16.10
2008,06,27,10,31,16.10
2008,06,27,10,32,15.90
2008,06,27,10,33,15.90
2008,06,27,10,34,15.90
2008,06,27,10,35,15.90
2008,06,27,10,36,15.90
2008,06,27,10,37,15.80
2008,06,27,10,38,15.80
2008,06,27,10,39,15.80
2008,06,27,10,40,15.80
2008,06,27,10,41,15.80
2008,06,27,10,42,15.80
2008,06,27,10,43,15.80
2008,06,27,10,44,15.80
2008,06,27,10,45,15.80
2008,06,27,10,46,15.70
2008,06,27,10,47,15.70
2008,06,27,10,48,15.70
2008,06,27,10,49,15.60
2008,06,27,10,50,15.60
2008,06,27,10,51,15.80
2008,06,27,10,52,16.00
2008,06,27,10,53,16.10
2008,06,27,10,54,16.20
2008,06,27,10,55,16.30
2008,06,27,10,56,16.30
2008,06,27,10,57,16.30
2008,06,27,10,58,16.30
2008,06,27,10,59,16.30
2008,06,27,11,00,16.40
2008,06,27,11,01,16.40
2008,06,27,11,02,16.50
2008,06,27,11,03,16.60
2008,06,27,11,04,16.60
2008,06,27,11,05,16.60
2008,06,27,11,06,16.70
2008,06,27,11,07,16.70
2008,06,27,11,08,16.70
2008,06,27,11,09,16.60
2008,06,27,11,10,16.60
2008,06,27,11,11,16.40
2008,06,27,11,12,16.40
2008,06,27,11,13,16.40
2008,06,27,11,14,16.40
2008,06,27,11,15,16.40
2008,06,27,11,16,16.40
2008,06,27,11,17,16.30
2008,06,27,11,18,16.30
2008,06,27,11,19,16.30
2008,06,27,11,20,16.30
2008,06,27,11,21,16.30
2008,06,27,11,22,16.30
2008,06,27,11,23,16.40
2008,06,27,11,24,16.40
2008,06,27,11,25,16.50
2008,06,27,11,26,16.60
2008,06,27,11,27,16.60
2008,06,27,11,28,16.60
2008,06,27,11,29,16.40
2008,06,27,11,30,16.40
2008,06,27,11,31,16.40
2008,06,27,11,32,16.40
2008,06,27,11,33,16.40
2008,06,27,11,34,16.50
2008,06,27,11,35,16.40
2008,06,27,11,36,16.40
2008,06,27,11,37,16.50
2008,06,27,11,38,16.60
2008,06,27,11,39,16.60
2008,06,27,11,40,16.70
2008,06,27,11,41,16.70
2008,06,27,11,42,16.70
2008,06,27,11,43,16.70
2008,06,27,11,44,16.60
2008,06,27,11,45,16.50
2008,06,27,11,46,16.40
2008,06,27,11,47,16.30
2008,06,27,11,48,16.30
2008,06,27,11,49,16.20
2008,06,27,11,50,16.20
2008,06,27,11,51,16.20
2008,06,27,11,52,16.30
2008,06,27,11,53,16.40
2008,06,27,11,54,16.40
2008,06,27,11,55,16.60
2008,06,27,11,56,16.70
2008,06,27,11,57,16.90
2008,06,27,11,58,16.90
2008,06,27,11,59,17.00
2008,06,27,12,00,17.00
2008,06,27,12,01,16.90
2008,06,27,12,02,16.90
2008,06,27,12,03,16.90
2008,06,27,12,04,16.90
2008,06,27,12,05,16.80
2008,06,27,12,06,16.80
2008,06,27,12,07,16.90
2008,06,27,12,08,16.90
2008,06,27,12,09,16.90
2008,06,27,12,10,17.00
2008,06,27,12,11,16.90
2008,06,27,12,12,16.80
2008,06,27,12,13,16.80
2008,06,27,12,14,16.70
2008,06,27,12,15,16.80
2008,06,27,12,16,16.80
2008,06,27,12,17,16.80
2008,06,27,12,18,16.80
2008,06,27,12,19,16.80
2008,06,27,12,20,16.80
2008,06,27,12,21,16.80
2008,06,27,12,22,16.80
2008,06,27,12,23,16.90
2008,06,27,12,24,17.00
2008,06,27,12,25,17.00
2008,06,27,12,26,17.20
2008,06,27,12,27,17.30
2008,06,27,12,28,17.40
2008,06,27,12,29,17.50
2008,06,27,12,30,17.50
2008,06,27,12,31,17.60
2008,06,27,12,32,17.70
2008,06,27,12,33,17.70
2008,06,27,12,34,17.70
2008,06,27,12,35,17.70
2008,06,27,12,36,17.70
2008,06,27,12,37,17.70
2008,06,27,12,38,17.70
2008,06,27,12,39,17.60
2008,06,27,12,40,17.60
2008,06,27,12,41,17.50
2008,06,27,12,42,17.50
2008,06,27,12,43,17.60
2008,06,27,12,44,17.50
2008,06,27,12,45,17.60
2008,06,27,12,46,17.60
2008,06,27,12,47,17.50
2008,06,27,12,48,17.40
2008,06,27,12,49,17.30
2008,06,27,12,50,17.30
2008,06,27,12,51,17.20
2008,06,27,12,52,17.20
2008,06,27,12,53,17.20
2008,06,27,12,54,17.30
2008,06,27,12,55,17.30
2008,06,27,12,56,17.50
2008,06,27,12,57,17.60
2008,06,27,12,58,17.60
2008,06,27,12,59,17.60
2008,06,27,13,00,17.70
2008,06,27,13,01,17.80
2008,06,27,13,02,17.90
2008,06,27,13,03,18.10
2008,06,27,13,04,18.20
2008,06,27,13,05,18.20
2008,06,27,13,06,18.20
2008,06,27,13,07,18.10
2008,06,27,13,08,18.10
2008,06,27,13,09,18.00
2008,06,27,13,10,17.90
2008,06,27,13,11,17.90
2008,06,27,13,12,17.80
2008,06,27,13,13,17.80
2008,06,27,13,14,17.80
2008,06,27,13,15,17.80
2008,06,27,13,16,17.90
2008,06,27,13,17,17.90
2008,06,27,13,18,17.80
2008,06,27,13,19,17.70
2008,06,27,13,20,17.70
2008,06,27,13,21,17.70
2008,06,27,13,22,17.70
2008,06,27,13,23,17.70
2008,06,27,13,24,17.70
2008,06,27,13,25,17.60
2008,06,27,13,26,17.60
2008,06,27,13,27,17.60
2008,06,27,13,28,17.60
2008,06,27,13,29,17.60
2008,06,27,13,30,17.70
2008,06,27,13,31,17.80
2008,06,27,13,32,17.80
2008,06,27,13,33,17.90
2008,06,27,13,34,17.90
2008,06,27,13,35,18.00
2008,06,27,13,36,18.10
2008,06,27,13,37,18.10
2008,06,27,13,38,18.10
2008,06,27,13,39,18.10
2008,06,27,13,40,18.10
2008,06,27,13,41,18.00
2008,06,27,13,42,17.90
2008,06,27,13,43,17.90
2008,06,27,13,44,17.90
2008,06,27,13,45,18.10
2008,06,27,13,46,18.10
2008,06,27,13,47,18.10
2008,06,27,13,48,18.20
2008,06,27,13,49,18.20
2008,06,27,13,50,18.40
2008,06,27,13,51,18.50
2008,06,27,13,52,18.50
2008,06,27,13,53,18.60
2008,06,27,13,54,18.60
2008,06,27,13,55,18.70
2008,06,27,13,56,18.70
2008,06,27,13,57,18.70
2008,06,27,13,58,18.70
2008,06,27,13,59,18.80
2008,06,27,14,00,18.90
2008,06,27,14,01,18.80
2008,06,27,14,02,18.60
2008,06,27,14,03,18.40
2008,06,27,14,04,18.30
2008,06,27,14,05,18.20
2008,06,27,14,06,18.20
2008,06,27,14,07,18.20
2008,06,27,14,08,18.20
2008,06,27,14,09,18.20
2008,06,27,14,10,18.20
2008,06,27,14,11,18.20
2008,06,27,14,12,18.20
2008,06,27,14,13,18.20
2008,06,27,14,14,18.20
2008,06,27,14,15,18.20
2008,06,27,14,16,18.30
2008,06,27,14,17,18.40
2008,06,27,14,18,18.60
2008,06,27,14,19,18.60
2008,06,27,14,20,18.70
2008,06,27,14,21,18.80
2008,06,27,14,22,18.70
2008,06,27,14,23,18.70
2008,06,27,14,24,18.70
2008,06,27,14,25,18.70
2008,06,27,14,26,18.70
2008,06,27,14,27,18.80
2008,06,27,14,28,18.90
2008,06,27,14,29,19.10
2008,06,27,14,30,19.10
2008,06,27,14,31,19.20
2008,06,27,14,32,19.30
2008,06,27,14,33,19.30
2008,06,27,14,34,19.40
2008,06,27,14,35,19.30
2008,06,27,14,36,19.30
2008,06,27,14,37,19.20
2008,06,27,14,38,19.20
2008,06,27,14,39,19.30
2008,06,27,14,40,19.40
2008,06,27,14,41,19.40
2008,06,27,14,42,19.50
2008,06,27,14,43,19.50
2008,06,27,14,44,19.60
2008,06,27,14,45,19.60
2008,06,27,14,46,19.70
2008,06,27,14,47,19.70
2008,06,27,14,48,19.80
2008,06,27,14,49,19.80
2008,06,27,14,50,19.90
2008,06,27,14,51,19.90
2008,06,27,14,52,20.10
2008,06,27,14,53,20.20
2008,06,27,14,54,20.20
2008,06,27,14,55,20.30
2008,06,27,14,56,20.30
2008,06,27,14,57,20.20
2008,06,27,14,58,20.20
2008,06,27,14,59,20.00
2008,06,27,15,00,19.90
2008,06,27,15,01,19.90
2008,06,27,15,02,19.90
2008,06,27,15,03,19.90
2008,06,27,15,04,19.90
2008,06,27,15,05,19.90
2008,06,27,15,06,19.80
2008,06,27,15,07,19.80
2008,06,27,15,08,19.80
2008,06,27,15,09,19.80
2008,06,27,15,10,19.80
2008,06,27,15,11,19.70
2008,06,27,15,12,19.70
2008,06,27,15,13,19.80
2008,06,27,15,14,19.80
2008,06,27,15,15,19.90
2008,06,27,15,16,19.90
2008,06,27,15,17,19.90
2008,06,27,15,18,20.00
2008,06,27,15,19,20.10
2008,06,27,15,20,20.20
2008,06,27,15,21,20.20
2008,06,27,15,22,20.20
2008,06,27,15,23,20.20
2008,06,27,15,24,20.30
2008,06,27,15,25,20.40
2008,06,27,15,26,20.50
2008,06,27,15,27,20.50
2008,06,27,15,28,20.50
2008,06,27,15,29,20.50
2008,06,27,15,30,20.40
2008,06,27,15,31,20.40
2008,06,27,15,32,20.30
2008,06,27,15,33,20.30
2008,06,27,15,34,20.30
2008,06,27,15,35,20.30
2008,06,27,15,36,20.20
2008,06,27,15,37,20.20
2008,06,27,15,38,20.20
2008,06,27,15,39,20.20
2008,06,27,15,40,20.20
2008,06,27,15,41,20.20
2008,06,27,15,42,20.30
2008,06,27,15,43,20.30
2008,06,27,15,44,20.30
2008,06,27,15,45,20.20
2008,06,27,15,46,20.20
2008,06,27,15,47,20.10
2008,06,27,15,48,20.00
2008,06,27,15,49,19.90
2008,06,27,15,50,19.90
2008,06,27,15,51,20.00
2008,06,27,15,52,20.10
2008,06,27,15,53,20.10
2008,06,27,15,54,20.00
2008,06,27,15,55,19.90
2008,06,27,15,56,19.90
2008,06,27,15,57,19.90
2008,06,27,15,58,20.00
2008,06,27,15,59,20.20
2008,06,27,16,00,20.20
2008,06,27,16,01,20.30
2008,06,27,16,02,20.40
2008,06,27,16,03,20.40
2008,06,27,16,04,20.40
2008,06,27,16,05,20.40
2008,06,27,16,06,20.30
2008,06,27,16,07,20.20
2008,06,27,16,08,20.20
2008,06,27,16,09,20.20
2008,06,27,16,10,20.20
2008,06,27,16,11,20.20
2008,06,27,16,12,20.10
2008,06,27,16,13,20.10
2008,06,27,16,14,20.10
2008,06,27,16,15,20.20
2008,06,27,16,16,20.30
2008,06,27,16,17,20.40
2008,06,27,16,18,20.60
2008,06,27,16,19,20.70
2008,06,27,16,20,20.90
2008,06,27,16,21,21.00
2008,06,27,16,22,21.10
2008,06,27,16,23,21.10
2008,06,27,16,24,21.10
2008,06,27,16,25,21.10
2008,06,27,16,26,21.20
2008,06,27,16,27,21.30
2008,06,27,16,28,21.30
2008,06,27,16,29,21.40
2008,06,27,16,30,21.60
2008,06,27,16,31,21.60
2008,06,27,16,32,21.60
2008,06,27,16,33,21.60
2008,06,27,16,34,21.50
2008,06,27,16,35,21.40
2008,06,27,16,36,21.40
2008,06,27,16,37,21.40
2008,06,27,16,38,21.40
2008,06,27,16,39,21.40
2008,06,27,16,40,21.30
2008,06,27,16,41,21.30
2008,06,27,16,42,21.30
2008,06,27,16,43,21.30
2008,06,27,16,44,21.30
2008,06,27,16,45,21.30
2008,06,27,16,46,21.30
2008,06,27,16,47,21.30
2008,06,27,16,48,21.30
2008,06,27,16,49,21.30
2008,06,27,16,50,21.30
2008,06,27,16,51,21.30
2008,06,27,16,52,21.40
2008,06,27,16,53,21.40
2008,06,27,16,54,21.40
2008,06,27,16,55,21.60
2008,06,27,16,56,21.60
2008,06,27,16,57,21.60
2008,06,27,16,58,21.80
2008,06,27,16,59,21.90
2008,06,27,17,00,22.00
2008,06,27,17,01,22.10
2008,06,27,17,02,22.10
2008,06,27,17,03,22.10
2008,06,27,17,04,22.10
2008,06,27,17,05,22.10
2008,06,27,17,06,22.10
2008,06,27,17,07,22.20
2008,06,27,17,08,22.10
2008,06,27,17,09,22.20
2008,06,27,17,10,22.20
2008,06,27,17,11,22.20
2008,06,27,17,12,22.20
2008,06,27,17,13,22.10
2008,06,27,17,14,22.00
2008,06,27,17,15,22.00
2008,06,27,17,16,21.90
2008,06,27,17,17,21.80
2008,06,27,17,18,21.70
2008,06,27,17,19,21.70
2008,06,27,17,20,21.70
2008,06,27,17,21,21.60
2008,06,27,17,22,21.50
2008,06,27,17,23,21.40
2008,06,27,17,24,21.30
2008,06,27,17,25,21.30
2008,06,27,17,26,21.30
2008,06,27,17,27,21.30
2008,06,27,17,28,21.30
2008,06,27,17,29,21.40
2008,06,27,17,30,21.60
2008,06,27,17,31,21.60
2008,06,27,17,32,21.60
2008,06,27,17,33,21.60
2008,06,27,17,34,21.60
2008,06,27,17,35,21.60
2008,06,27,17,36,21.40